This demonstration page uses our WeatherBlox Daily Observations layout. Learn more.

Left ArrowRight Arrow

Hourly Observations for April 5, 2015

Temp ( °F °C ) Dew Point ( °F °C ) Humidity (%) Winds ( mph kmh ) Pressure ( in mb ) Visibility ( mi km ) Precip ( " mm )
12:53 am 00:53 Clear 37 2.8 31 -0.6 79 79 Calm 30.29 1026 10 16.0934 0 0
1:53 am 01:53 Clear 36 2.2 33 0.6 89 89 Calm 30.28 1026 10 16.0934 0 0
2:53 am 02:53 Clear 35 1.7 30 -1.1 82 82 ENE 3 6 30.27 1025 10 16.0934 0 0
3:53 am 03:53 Clear 34 1.1 29 -1.7 82 82 Calm 30.26 1025 10 16.0934 0 0
4:53 am 04:53 Clear 34 1.1 30 -1.1 85 85 Calm 30.25 1024 10 16.0934 0 0
5:53 am 05:53 Clear 34 1.1 30 -1.1 85 85 E 3 6 30.26 1025 10 16.0934 0 0
6:53 am 06:53 Clear 32 0 29 -1.7 88 88 Calm 30.27 1025 10 16.0934 0 0
7:53 am 07:53 Sunny 32 0 30 -1.1 92 92 Calm 30.28 1026 10 16.0934 0 0
8:53 am 08:53 Sunny 42 5.6 35 1.7 76 76 Calm 30.29 1026 10 16.0934 0 0
9:53 am 09:53 Sunny 49 9.4 35 1.7 59 59 Calm 30.3 1026 10 16.0934 0 0
10:53 am 10:53 Sunny 55 12.8 30 -1.1 38 38 SW 10 17 30.28 1026 10 16.0934 0 0
11:53 am 11:53 Sunny 58 14.4 27 -2.8 31 31 WSW 10 17 30.27 1025 10 16.0934 0 0
12:53 pm 12:53 Sunny 61 16.1 22 -5.6 22 22 VRB 7 11 30.23 1024 10 16.0934 0 0
1:53 pm 13:53 Sunny 63 17.2 24 -4.4 23 23 SSW 10 17 30.2 1023 10 16.0934 0 0
2:53 pm 14:53 Sunny 64 17.8 23 -5 21 21 SW 8 13 30.18 1022 10 16.0934 0 0
3:53 pm 15:53 Sunny 65 18.3 23 -5 20 20 W 9 15 30.15 1021 10 16.0934 0 0
4:53 pm 16:53 Sunny 66 18.9 22 -5.6 19 19 WSW 9 15 30.13 1020 10 16.0934 0 0
5:53 pm 17:53 Sunny 65 18.3 24 -4.4 21 21 SSW 7 11 30.12 1020 10 16.0934 0 0
6:53 pm 18:53 Sunny 63 17.2 24 -4.4 23 23 SSW 8 13 30.14 1021 10 16.0934 0 0
7:53 pm 19:53 Sunny 60 15.6 21 -6.1 22 22 SSW 7 11 30.15 1021 10 16.0934 0 0
8:53 pm 20:53 Clear 56 13.3 26 -3.3 32 32 Calm 30.14 1021 10 16.0934 0 0
9:53 pm 21:53 Clear 54 12.2 28 -2.2 37 37 Calm 30.14 1021 10 16.0934 0 0
10:53 pm 22:53 Clear 46 7.8 28 -2.2 50 50 ESE 5 7 30.14 1021 10 16.0934 0 0
11:53 pm 23:53 Clear 45 7.2 31 -0.6 58 58 Calm 30.13 1020 10 16.0934 0 0

Powered by AerisWeather